Theta_e
308 306 305 304 303 303 302 302 302 302 302 303 303 305 305 306 307 307 306 310 300 295 299 302 303 301 301 300 294 298 299 298 298 293 293 296 295 297 297 298 298 297 296 297 299 295 292 305 307 303 309 316 316 315
307 306 305 304 303 303 302 302 302 302 302 303 303 304 305 306 307 307 304 309 305 296 299 305 306 308 306 305 300 301 298 296 298 294 294 298 296 299 298 294 303 296 300 299 298 295 301 306 307 311 316 314 314 315
309 307 305 304 303 302 302 302 302 302 302 302 303 304 305 306 306 306 304 305 302 297 301 303 304 308 311 310 310 298 302 302 300 302 298 299 295 298 296 297 300 302 305 300 302 299 302 306 310 315 316 314 315 316
308 307 306 304 303 302 302 301 302 302 302 303 303 304 304 305 306 306 303 307 301 299 294 300 309 307 311 313 310 309 305 308 304 302 297 296 294 300 294 298 297 299 304 300 297 301 303 304 307 310 313 314 313 314
307 306 305 304 302 302 301 301 301 302 302 303 304 304 305 305 306 306 307 308 308 302 295 298 306 308 311 311 309 309 308 307 301 296 293 291 296 296 297 296 291 298 300 300 295 302 301 300 305 306 306 307 307 306
307 306 304 303 302 302 301 301 301 302 302 303 304 304 304 304 305 306 303 310 311 309 297 295 306 306 308 310 308 308 309 306 303 297 294 296 300 296 291 289 293 297 302 303 298 302 302 302 302 302 300 300 300 299
306 305 304 303 302 301 301 301 301 302 302 303 303 304 304 305 305 304 302 306 306 310 298 294 299 306 307 308 310 308 307 305 303 299 296 295 296 296 291 287 292 295 297 298 301 301 297 298 294 296 296 297 299 299
306 305 303 302 301 301 300 301 301 302 302 303 303 304 305 305 305 305 310 306 308 305 304 296 298 301 307 302 302 306 302 304 301 299 300 296 296 294 287 292 295 295 295 294 294 295 295 295 296 295 296 296 295 294
305 304 303 301 300 300 300 300 301 302 302 303 303 304 308 307 305 307 307 307 311 306 299 300 295 294 305 303 305 305 305 297 303 296 296 298 291 284 289 293 296 296 294 295 297 297 297 295 296 298 299 298 296 296
305 304 302 301 300 300 300 300 301 302 302 303 305 303 301 306 305 307 306 304 303 305 304 298 303 296 301 301 303 300 303 297 294 296 300 293 288 291 294 296 297 299 299 300 296 294 295 294 295 295 296 297 296 296
304 302 301 300 299 300 300 301 301 302 303 306 301 300 304 307 307 304 298 297 300 296 301 303 300 296 305 298 298 301 298 299 293 294 295 291 289 292 296 296 298 298 299 298 297 297 297 296 294 294 293 293 293 294
303 301 299 299 300 300 300 300 301 302 303 299 298 301 302 303 300 295 295 298 295 295 300 298 299 300 303 305 300 302 295 298 289 299 293 288 292 294 294 295 295 296 295 295 295 295 294 294 294 294 294 293 293 293
301 299 299 299 300 300 300 301 301 301 302 303 299 295 297 297 288 289 287 293 294 298 301 301 299 301 304 303 300 299 291 293 301 294 289 291 294 295 295 294 295 295 295 294 293 293 293 292 292 292 291 292 292 291
299 299 299 300 300 300 301 302 302 302 300 296 292 287 290 291 293 295 297 297 299 302 301 300 299 300 302 299 300 292 296 297 290 288 288 293 294 294 295 296 295 294 294 294 292 292 291 290 290 290 290 291 291 289
299 299 299 299 300 301 303 303 304 303 299 292 292 286 290 298 300 302 303 302 302 303 300 297 299 299 299 296 298 296 290 288 290 289 295 297 297 296 295 296 294 294 294 293 293 291 290 290 290 289 290 290 289 287
299 298 298 301 302 303 303 303 303 303 299 294 291 290 296 296 297 299 300 301 303 303 302 300 295 293 293 296 291 290 289 286 292 296 299 299 298 298 297 296 295 294 294 293 293 291 291 290 289 289 288 287 287 287
298 299 301 302 302 303 302 302 301 295 294 292 292 297 297 297 297 302 303 305 305 300 296 297 290 290 298 292 288 293 291 296 299 299 300 300 299 298 298 296 295 294 294 294 293 292 291 290 291 289 286 285 287 286
298 302 302 302 301 300 303 301 298 294 291 294 292 296 299 298 300 304 306 306 301 299 299 294 299 292 288 286 289 297 298 298 301 298 300 301 301 300 299 297 295 294 294 294 294 292 290 288 287 288 286 287 286 286
300 302 301 301 302 301 296 296 298 290 292 294 296 298 298 299 303 302 305 305 307 307 303 298 293 291 291 296 298 298 298 298 297 299 300 302 301 300 299 297 296 295 295 295 295 293 291 289 287 287 288 288 286 288
298 299 301 301 301 298 292 295 301 295 291 294 297 295 299 300 304 304 304 302 300 299 295 294 294 298 299 299 303 302 301 301 299 297 297 299 300 300 298 297 296 296 296 296 294 290 290 288 288 288 288 289 288 287
299 301 301 302 300 298 295 295 294 296 296 294 297 298 299 301 297 298 299 300 293 293 297 298 300 301 302 299 303 303 301 300 299 299 298 298 300 300 299 298 298 296 295 296 295 292 290 290 288 289 290 288 289 289
300 301 299 299 295 295 295 298 295 297 295 296 297 298 296 295 296 297 302 297 298 300 301 300 299 300 298 300 304 305 304 303 303 300 297 298 299 299 298 298 298 296 296 296 297 295 295 294 294 291 289 289 289 289
300 300 298 296 291 290 290 299 292 294 289 292 297 293 295 296 298 302 296 297 300 301 302 302 302 302 300 302 303 301 304 305 303 304 303 303 303 301 301 299 299 297 296 296 298 296 296 290 291 292 292 291 290 289
299 294 292 290 291 288 293 290 294 292 292 290 289 289 292 294 298 295 293 297 299 301 302 301 297 297 297 298 296 296 297 304 304 304 304 304 302 301 301 300 300 300 299 298 297 297 296 294 292 293 293 292 292 291
288 289 289 286 292 288 287 287 287 287 286 290 289 290 291 294 291 290 291 295 297 298 299 299 300 299 296 297 296 295 297 297 301 303 305 304 304 302 301 301 301 301 301 298 297 296 296 296 295 294 293 292 290 290
285 289 286 289 289 287 287 284 286 288 290 290 291 295 295 292 288 287 291 295 296 298 296 295 294 295 298 301 299 299 300 300 299 298 305 305 304 302 299 299 298 299 301 301 299 297 295 295 295 294 293 292 287 290
284 287 291 296 294 293 291 293 296 292 288 288 293 291 289 287 287 292 297 298 297 298 297 298 300 300 300 300 299 301 302 303 301 301 302 303 304 306 304 301 300 302 302 300 300 299 297 295 295 295 294 295 294 294
290 291 287 292 292 295 289 291 291 290 292 296 295 290 288 289 291 296 299 299 299 298 299 301 301 301 301 300 301 301 301 301 301 302 302 300 300 298 303 303 304 287 301 302 301 300 299 298 296 295 295 294 294 295
290 294 293 290 291 293 293 293 293 297 299 298 294 294 293 297 298 299 298 298 298 299 298 298 298 299 299 300 300 300 299 298 296 294 295 297 297 297 300 301 301 301 300 300 288 294 300 299 298 297 296 295 296 296
290 295 292 291 290 291 296 299 297 299 301 300 299 297 297 297 298 299 299 298 297 297 298 299 299 297 297 296 296 293 295 297 294 292 290 291 290 295 294 294 297 301 301 300 299 299 285 294 291 297 295 296 295 295
295 294 292 292 292 297 298 300 300 299 300 298 300 298 296 295 297 298 299 300 299 298 297 296 296 297 296 294 294 290 289 294 294 293 292 291 290 290 291 290 293 293 298 300 300 299 297 296 296 296 295 294 295 293
293 292 291 289 291 296 299 297 295 294 294 294 296 297 295 295 293 294 297 297 296 295 291 294 294 294 294 293 292 292 286 291 291 290 290 291 292 293 292 290 290 291 292 295 299 299 298 296 296 295 295 295 295 295
293 294 294 293 292 291 295 294 291 291 292 292 292 295 295 294 290 290 294 296 295 294 293 294 293 292 291 291 291 291 288 290 288 285 285 285 285 286 289 292 293 291 292 294 294 296 298 298 297 297 297 296 296 296
Wind_Speed
15 13 13 13 13 12 13 13 15 15 16 16 17 18 17 17 15 9 5 1 2 4 12 7 10 13 12 11 8 15 7 6 5 8 5 4 4 4 2 6 5 6 1 6 4 7 8 10 3 4 5 10 16 18
16 15 13 13 13 12 12 12 14 15 16 16 17 17 17 17 15 11 5 2 1 4 9 17 17 16 12 12 10 9 2 4 3 3 2 4 2 3 3 3 6 3 7 4 8 5 3 5 4 2 3 12 15 18
18 16 14 14 13 12 12 13 13 15 16 16 17 16 16 16 15 9 5 5 3 5 8 7 2 9 6 6 5 5 3 3 3 2 2 3 5 4 2 4 1 4 7 4 5 10 10 9 6 6 11 13 16 17
17 17 16 15 13 12 12 13 14 14 15 17 17 17 17 16 15 11 4 3 2 4 5 2 5 10 5 8 5 11 11 4 2 2 2 3 2 6 4 4 5 6 8 7 11 11 14 14 12 12 14 17 17 19
17 17 16 15 13 12 12 13 14 15 15 17 17 17 17 17 15 10 6 4 5 6 6 8 17 4 10 9 5 4 5 8 3 2 3 4 3 3 2 3 5 8 6 4 5 11 14 11 13 14 16 17 18 22
16 17 16 14 13 11 11 13 15 16 16 18 19 18 18 16 13 7 5 5 5 3 4 5 6 8 14 9 3 2 3 2 3 3 3 3 3 4 3 4 9 10 12 6 11 15 18 18 18 16 19 18 18 17
16 17 16 14 13 10 11 12 15 17 18 19 20 19 19 16 5 6 7 6 1 3 3 6 4 4 12 6 1 2 1 3 3 2 3 3 5 5 4 4 6 10 14 14 15 17 19 14 13 16 18 18 17 16
17 17 16 14 12 10 9 13 15 17 19 20 21 21 18 12 3 7 4 6 4 5 4 5 4 4 7 5 4 4 3 0 5 3 3 5 4 4 5 7 9 11 15 17 17 13 15 13 14 13 13 12 15 13
17 17 16 13 9 9 9 13 15 17 19 21 22 20 5 5 4 3 6 5 5 5 5 3 5 4 6 5 3 2 1 3 2 4 4 5 5 7 5 6 11 10 10 13 14 13 13 15 15 13 13 12 12 11
16 16 14 10 7 8 10 13 13 16 20 21 8 4 4 3 7 5 5 5 5 5 5 5 0 4 5 5 3 5 2 2 2 4 3 4 3 5 9 8 8 11 11 12 13 11 10 11 11 11 11 9 8 7
15 14 11 7 7 8 10 11 10 13 13 1 3 2 6 4 4 4 3 4 3 5 4 1 3 7 2 5 4 3 2 2 1 3 0 3 3 3 6 8 9 10 11 13 12 11 10 9 8 8 7 6 6 5
15 13 11 9 9 9 10 9 8 6 3 4 4 5 4 4 4 5 4 3 5 1 4 3 4 4 2 3 4 1 3 2 3 2 2 4 5 9 9 10 10 10 12 13 11 11 10 9 7 6 6 5 5 5
13 11 9 8 9 10 10 9 8 9 10 2 3 3 3 3 2 6 5 3 3 3 2 1 2 2 2 4 4 2 3 2 1 2 4 4 10 10 10 9 10 10 11 11 10 9 8 8 7 6 5 4 3 3
12 10 10 10 11 11 10 11 10 6 4 3 3 4 5 5 5 2 1 2 5 1 2 3 2 2 1 4 2 4 3 3 3 2 4 8 12 11 9 8 8 9 9 9 9 7 7 7 7 6 6 5 3 4
11 10 8 9 11 12 10 7 10 5 3 3 3 5 6 2 2 2 0 2 2 1 2 3 3 3 3 4 2 2 4 2 3 3 5 11 14 13 11 9 9 8 7 7 6 6 6 6 5 6 6 6 5 4
10 6 6 6 5 3 7 8 5 3 2 3 4 5 4 4 5 5 5 2 4 3 3 4 3 3 3 3 2 1 2 2 3 3 5 12 14 13 11 10 9 9 8 7 7 7 6 6 5 7 6 5 5 5
8 3 7 6 8 8 7 4 4 5 3 4 5 6 7 4 5 2 2 1 3 4 1 3 3 2 1 1 1 2 0 4 4 4 8 12 12 12 11 10 9 9 8 7 7 7 7 6 3 5 6 4 4 3
3 6 5 6 5 4 4 4 3 3 6 6 6 4 2 5 4 1 1 3 3 2 2 1 2 3 2 1 1 2 3 3 3 6 8 10 12 12 10 11 10 9 8 7 7 6 5 3 4 5 5 5 5 4
2 5 2 3 3 2 4 5 4 3 6 4 5 5 4 5 3 3 3 3 1 1 2 1 3 2 2 1 1 3 5 5 7 8 9 10 10 10 10 10 9 9 8 7 6 5 5 5 4 4 3 3 3 3
3 2 3 4 4 3 4 3 3 4 3 1 3 4 3 3 2 2 3 4 1 1 3 3 3 1 0 2 0 2 3 5 8 9 9 7 7 9 9 8 7 8 7 8 8 5 5 5 4 4 3 4 4 5
6 5 6 6 4 3 4 2 4 3 3 4 2 5 3 3 3 4 4 5 2 2 1 1 1 3 4 2 3 3 5 6 6 6 8 8 8 8 8 7 8 7 6 6 6 7 5 4 4 3 5 4 5 5
2 6 3 2 3 4 4 4 3 2 4 2 3 4 4 5 4 4 5 4 3 2 1 3 3 4 4 5 2 2 4 6 5 5 3 6 7 7 8 8 8 7 6 6 5 5 7 5 6 7 6 6 4 5
6 3 3 5 5 4 3 2 5 4 4 1 2 3 3 2 1 5 4 4 2 2 3 4 5 3 6 6 7 4 2 3 5 5 5 5 5 6 7 7 7 6 6 7 6 6 6 8 4 7 9 8 7 6
3 4 5 6 6 4 4 4 3 2 3 3 2 2 3 2 4 3 2 2 4 5 4 9 5 4 4 4 3 1 3 4 3 3 3 5 6 6 7 7 7 7 6 7 7 7 8 8 8 7 7 8 8 7
3 4 3 4 5 5 5 5 4 4 4 5 5 3 2 2 3 3 3 2 6 6 6 3 2 6 5 5 5 3 4 2 5 1 2 4 5 5 6 6 7 7 7 9 10 10 10 9 9 8 8 8 8 8
5 6 6 9 6 5 5 5 6 7 4 3 3 3 2 3 3 3 2 3 5 6 5 4 4 3 3 2 3 4 4 2 1 4 1 2 1 5 5 6 7 7 8 8 9 11 12 12 11 13 11 10 8 10
4 6 5 4 2 4 4 2 2 1 4 5 3 4 2 3 3 3 3 3 4 5 5 4 2 1 2 3 2 2 2 3 3 2 2 3 4 2 4 5 6 5 9 10 10 12 13 14 13 13 11 11 12 11
4 4 7 8 5 3 1 3 5 6 5 4 3 6 5 1 2 3 2 4 5 6 4 4 4 3 2 3 2 1 1 2 4 5 5 4 1 2 2 2 2 5 5 9 10 11 12 12 13 14 13 12 11 12
5 4 5 7 5 5 6 5 5 2 2 3 2 2 3 3 3 3 5 6 5 5 5 5 4 3 3 2 0 2 3 4 4 6 10 7 7 4 4 3 1 4 4 6 4 5 12 11 12 12 14 12 10 10
5 5 5 7 5 5 3 2 3 4 2 3 3 3 3 3 3 2 4 5 5 4 3 2 3 4 2 3 1 2 3 3 4 3 3 2 4 4 4 4 6 1 2 5 8 9 4 6 6 8 10 10 10 11
3 6 5 5 4 2 4 5 5 5 3 3 2 1 4 4 3 2 2 3 4 4 4 4 3 2 2 2 1 2 3 0 2 2 2 2 2 2 3 4 4 4 5 4 6 8 9 10 11 12 14 14 15 12
6 7 6 5 3 4 4 4 2 2 2 2 2 2 4 4 5 4 3 4 5 5 2 3 3 2 2 3 2 3 2 2 3 4 6 5 5 4 3 2 3 4 4 5 6 8 11 13 11 13 14 17 15 16
6 6 5 5 5 5 2 4 3 3 3 3 3 2 3 3 1 2 2 1 2 2 4 3 3 2 3 2 2 2 1 3 3 2 3 4 4 6 6 6 4 5 6 5 4 7 11 16 14 15 15 16 16 16
Wind_Direction
246 247 258 269 279 288 297 309 315 319 324 330 333 334 336 335 340 336 308 318 298 281 294 284 301 304 324 345 332 334 330 352 334 15 357 3 32 49 60 37 358 41 129 127 157 136 116 358 212 295 15 160 138 143
239 238 245 257 269 279 292 304 309 314 316 325 329 331 331 333 336 337 305 349 182 243 286 307 283 273 279 300 311 312 318 281 310 317 305 298 45 345 235 86 25 45 22 33 9 69 35 25 8 7 245 139 141 126
238 237 238 247 260 273 285 295 302 308 314 320 323 326 323 328 330 333 297 318 261 252 276 252 352 354 297 283 276 276 83 267 292 321 301 293 66 339 1 57 247 66 7 79 175 55 56 47 58 126 124 117 114 132
240 231 234 241 252 265 279 291 298 306 310 312 318 322 319 325 326 316 276 320 252 275 278 340 297 334 344 328 294 220 280 264 224 320 339 348 55 353 30 25 47 355 312 80 104 117 95 58 63 82 101 113 119 124
241 230 231 237 248 262 279 292 297 301 305 307 311 317 319 321 321 301 254 226 246 318 316 308 300 26 348 359 10 180 229 12 19 22 25 21 23 4 27 54 23 338 342 342 53 71 88 87 85 99 104 108 107 111
241 225 225 232 243 259 279 288 295 300 302 305 309 312 314 316 325 282 218 163 215 269 287 299 352 300 347 356 28 53 268 338 67 16 8 29 329 323 70 70 344 32 57 62 95 88 90 81 77 78 91 91 92 100
236 221 223 222 242 248 272 290 296 301 302 304 306 310 309 306 291 266 350 49 163 267 262 290 283 18 342 304 46 22 23 48 21 66 30 7 25 40 42 65 358 45 68 65 95 106 88 73 88 84 84 86 91 91
231 214 214 220 233 252 279 289 295 299 301 304 306 306 302 294 206 255 154 194 230 265 243 277 303 304 19 338 335 27 360 264 43 54 3 11 23 44 62 52 60 68 71 64 64 67 90 101 94 83 87 86 83 85
221 208 207 214 226 264 277 283 295 303 306 305 304 298 245 221 215 82 323 240 209 286 299 269 307 339 346 347 301 280 305 76 65 63 38 6 17 40 340 29 72 81 91 101 86 80 80 77 88 94 99 98 99 106
210 198 202 205 222 257 284 290 305 310 309 303 280 235 205 94 352 267 186 202 205 189 221 268 30 297 321 353 326 309 7 50 86 71 111 57 61 30 23 68 74 101 106 107 103 93 90 87 81 76 74 78 76 78
192 189 187 202 241 263 277 287 303 320 280 281 320 298 352 320 236 220 234 231 169 223 193 299 316 318 105 325 345 11 321 343 173 87 161 107 85 94 98 85 79 81 83 81 84 77 78 81 84 91 80 74 74 59
181 171 178 206 236 255 274 281 302 290 355 343 294 282 274 239 224 243 216 178 225 292 159 279 11 328 333 291 269 26 304 250 76 120 118 103 120 129 116 97 86 83 84 80 74 80 77 69 69 77 70 60 49 42
166 171 196 225 241 248 256 267 274 273 279 236 216 239 247 178 236 222 193 201 212 167 164 254 306 328 226 244 257 268 264 55 237 175 76 84 140 134 127 119 105 99 96 91 85 78 74 76 63 55 71 42 40 36
166 192 216 229 245 255 256 260 258 250 253 246 237 242 230 184 231 242 290 6 76 244 251 295 263 273 331 253 268 254 82 246 211 122 82 148 152 140 134 123 119 104 96 94 91 87 80 71 72 64 53 42 16 17
178 204 226 244 250 260 266 261 198 187 242 230 229 243 222 267 216 160 42 195 135 44 281 252 237 253 230 260 241 286 211 175 22 95 116 143 146 146 144 135 124 121 113 102 96 86 81 74 72 71 53 44 54 70
186 208 225 206 214 225 154 147 175 201 223 231 233 261 221 239 205 183 204 183 159 212 184 232 245 235 212 295 263 303 356 39 61 71 122 137 146 146 143 138 130 123 115 103 91 89 90 78 77 94 83 64 69 83
185 231 151 180 242 200 187 229 190 210 243 221 227 230 269 287 265 185 236 144 149 205 210 249 243 62 173 264 253 36 236 46 45 105 136 140 145 144 141 133 130 124 112 99 90 79 75 64 86 107 91 88 91 81
240 134 141 157 164 177 176 224 242 225 229 235 249 241 221 266 257 187 274 161 195 145 207 261 323 229 179 292 168 127 82 72 66 113 128 137 141 143 144 140 138 130 120 107 86 81 84 97 85 107 120 123 131 130
157 119 112 164 220 232 200 192 235 248 233 263 260 255 255 251 219 251 258 125 5 355 168 184 238 221 157 220 360 133 155 140 134 128 120 126 136 137 134 136 137 135 133 133 107 89 85 70 107 123 119 113 101 116
224 220 234 206 228 204 234 196 240 256 255 228 257 234 228 261 173 204 175 121 101 207 211 208 225 46 318 110 207 128 105 144 139 139 136 135 141 145 150 155 155 146 148 136 110 108 92 94 114 137 135 136 125 106
185 160 168 202 191 232 273 231 237 260 308 255 196 231 204 209 165 172 172 139 132 246 242 240 312 92 103 159 206 131 150 174 167 161 157 149 157 162 161 165 162 173 167 163 136 116 154 102 120 149 151 123 107 111
131 155 142 168 236 200 250 214 283 6 265 265 237 222 207 200 182 191 176 190 232 152 206 145 153 146 161 171 184 205 146 183 177 114 103 120 167 171 171 167 176 175 176 167 146 131 123 143 129 127 130 122 119 114
165 193 193 183 205 176 247 205 233 200 239 223 253 225 215 142 150 166 195 192 169 147 141 107 117 163 154 119 123 124 62 215 203 199 204 206 183 184 174 173 185 179 172 167 160 149 134 110 136 132 133 148 142 136
123 193 205 189 198 205 174 200 232 238 241 215 240 267 130 143 174 213 211 167 119 150 141 123 111 93 87 111 104 40 357 305 225 169 218 219 192 181 188 179 184 192 183 159 171 166 148 167 143 161 145 144 150 156
182 192 188 202 201 197 195 183 189 224 228 189 202 183 114 305 188 193 201 187 174 167 138 139 175 162 159 161 147 174 211 250 266 236 107 244 203 161 184 185 182 186 178 174 179 178 170 166 178 168 163 157 152 153
225 180 201 195 161 203 179 186 203 204 192 197 174 96 172 184 192 219 181 186 179 145 150 159 160 191 205 193 191 195 155 161 263 282 174 57 209 203 193 194 188 185 192 193 186 185 181 180 182 178 177 169 156 166
214 195 187 230 218 184 210 204 109 99 186 203 181 137 150 220 214 111 141 154 144 136 142 171 225 295 281 136 112 199 252 238 249 257 315 307 308 323 278 252 219 177 174 184 193 193 190 188 188 187 185 180 183 192
247 207 199 176 205 201 206 205 192 184 195 152 175 195 192 224 89 109 118 127 135 134 152 106 85 81 98 115 123 213 245 284 247 230 197 162 161 339 5 319 279 37 213 177 192 194 193 193 194 191 191 191 185 192
215 195 197 198 186 199 214 191 194 153 79 221 205 129 113 68 74 118 135 144 153 170 157 151 136 142 149 152 58 341 342 342 302 234 228 220 166 130 19 356 288 200 188 182 184 213 196 193 193 192 195 196 188 186
193 185 200 189 208 202 150 146 110 104 73 52 100 131 126 109 109 169 165 162 177 172 167 196 155 222 226 265 164 50 335 41 53 20 356 37 36 8 10 357 332 343 230 200 186 179 112 174 158 187 193 192 192 189
161 195 202 192 216 128 114 116 124 126 126 96 56 73 104 132 146 166 202 170 162 186 187 185 187 194 228 257 218 191 212 237 29 32 47 338 313 320 319 323 324 320 309 233 208 190 185 190 187 189 192 194 192 194
189 199 199 155 152 139 163 157 142 122 137 202 138 145 160 196 184 168 175 193 173 181 195 230 195 177 103 107 146 116 339 345 339 336 326 318 312 302 266 258 295 292 290 288 268 219 202 202 196 198 197 199 197 198
190 190 198 153 141 150 183 171 152 151 195 201 195 227 219 268 136 112 176 237 293 174 179 156 140 132 128 146 125 111 315 323 5 307 289 292 300 303 300 290 274 268 270 262 254 272 246 214 214 207 204 200 202 200